GFSSW_500_temp_081.txt.gz
Temp
-2 -2 -2 -2 -3 -3 -3 -2 -2 -2 -2 -2 -2 -2 -3 -3 -3 -3 -3 -3 -4 -4 -4 -5 -6 -5 -6 -6 -5 -5 -6 -7 -6 -7 -7 -7 -6 -6 -6 -7 -7 -6 -6 -6 -6
-2 -2 -2 -2 -2 -2 -3 -3 -2 -2 -2 -2 -3 -2 -2 -3 -3 -3 -3 -3 -3 -4 -4 -4 -5 -5 -6 -6 -5 -7 -7 -7 -7 -7 -6 -6 -6 -6 -6 -8 -7 -7 -6 -6 -6
-4 -4 -3 -3 -3 -2 -2 -3 -3 -2 -2 -2 -2 -3 -2 -2 -3 -3 -3 -3 -3 -3 -4 -4 -4 -6 -5 -6 -5 -8 -7 -7 -7 -7 -7 -7 -6 -7 -6 -5 -7 -7 -7 -6 -6
-4 -4 -4 -4 -4 -4 -4 -3 -3 -3 -3 -2 -2 -3 -3 -2 -2 -4 -3 -3 -3 -3 -4 -4 -4 -5 -6 -6 -6 -8 -8 -8 -7 -8 -7 -6 -7 -7 -6 -5 -4 -7 -8 -7 -7
-3 -3 -3 -4 -4 -4 -4 -4 -4 -4 -4 -3 -3 -2 -2 -3 -3 -3 -3 -4 -4 -3 -4 -4 -4 -4 -5 -5 -4 -8 -7 -7 -7 -7 -7 -7 -7 -7 -7 -7 -5 -7 -7 -7 -7
-4 -4 -4 -4 -4 -4 -4 -4 -4 -4 -4 -4 -4 -3 -2 -2 -3 -4 -4 -4 -4 -4 -4 -4 -5 -4 -4 -4 -4 -6 -6 -7 -7 -6 -7 -8 -7 -7 -7 -6 -5 -6 -6 -7 -6
-4 -4 -4 -4 -4 -4 -5 -5 -5 -5 -5 -5 -4 -4 -3 -4 -3 -4 -5 -5 -4 -4 -5 -5 -4 -5 -4 -5 -5 -5 -4 -4 -6 -6 -7 -8 -7 -7 -6 -7 -5 -5 -6 -6 -7
-4 -4 -4 -4 -4 -4 -4 -4 -5 -5 -5 -5 -5 -5 -3 -6 -5 -4 -5 -6 -6 -5 -5 -5 -5 -4 -5 -5 -5 -5 -4 -5 -5 -7 -7 -7 -7 -7 -7 -7 -7 -6 -5 -6 -6
-3 -4 -4 -4 -4 -4 -4 -4 -4 -4 -5 -5 -5 -5 -3 -6 -5 -6 -5 -5 -6 -6 -6 -5 -5 -5 -6 -5 -5 -5 -5 -5 -6 -7 -7 -7 -6 -6 -7 -7 -6 -7 -4 -6 -7
-4 -4 -4 -4 -4 -4 -5 -5 -5 -4 -4 -4 -5 -5 -4 -6 -8 -9 -8 -7 -6 -7 -7 -6 -6 -5 -6 -6 -5 -6 -6 -6 -7 -7 -7 -6 -7 -7 -7 -7 -6 -7 -7 -7 -6
-4 -4 -4 -4 -5 -5 -5 -5 -4 -5 -4 -5 -5 -6 -6 -7 -9 -8 -9 -9 -8 -7 -7 -7 -7 -6 -6 -7 -7 -6 -6 -7 -7 -7 -7 -7 -8 -7 -7 -7 -7 -7 -7 -7 -7
-4 -4 -4 -4 -5 -5 -5 -5 -5 -5 -4 -4 -5 -6 -7 -9 -9 -8 -8 -10 -9 -8 -7 -8 -6 -7 -7 -7 -7 -8 -8 -7 -7 -7 -7 -7 -7 -7 -7 -7 -7 -7 -7 -7 -7
-4 -4 -4 -5 -4 -5 -5 -5 -5 -5 -4 -4 -7 -7 -9 -9 -9 -9 -9 -9 -10 -10 -9 -8 -7 -7 -7 -7 -8 -9 -8 -8 -8 -7 -7 -7 -7 -7 -6 -7 -6 -6 -7 -7 -7
-4 -5 -4 -5 -4 -5 -5 -5 -5 -5 -5 -7 -9 -9 -9 -10 -10 -10 -10 -11 -10 -10 -10 -9 -8 -8 -7 -7 -8 -8 -8 -8 -8 -8 -7 -7 -6 -6 -6 -7 -7 -7 -7 -7 -7
-5 -5 -4 -5 -5 -5 -5 -6 -6 -7 -8 -10 -11 -11 -11 -11 -10 -11 -10 -11 -10 -10 -11 -8 -9 -8 -8 -8 -9 -9 -8 -8 -8 -8 -8 -8 -7 -5 -6 -7 -7 -7 -7 -7 -7
-4 -4 -4 -5 -6 -6 -6 -6 -8 -10 -11 -11 -11 -12 -12 -11 -10 -10 -11 -11 -11 -10 -11 -10 -10 -10 -9 -9 -9 -9 -9 -9 -8 -8 -7 -5 -7 -5 -6 -7 -7 -7 -6 -6 -7
-5 -5 -5 -5 -6 -6 -6 -7 -9 -11 -12 -12 -12 -12 -12 -12 -11 -11 -11 -11 -11 -11 -11 -10 -11 -10 -10 -9 -9 -9 -9 -9 -8 -8 -6 -6 -7 -6 -6 -6 -6 -6 -7 -7 -7
-5 -5 -6 -6 -7 -6 -7 -9 -11 -12 -12 -12 -12 -12 -12 -12 -11 -11 -11 -11 -11 -11 -11 -10 -10 -10 -10 -9 -9 -9 -9 -9 -9 -8 -6 -7 -7 -7 -6 -6 -6 -7 -7 -6 -5
-6 -6 -6 -7 -7 -7 -9 -11 -12 -13 -12 -12 -12 -13 -12 -12 -11 -12 -11 -11 -11 -11 -11 -11 -10 -10 -10 -9 -9 -9 -9 -9 -9 -8 -8 -7 -7 -6 -7 -6 -7 -8 -9 -8 -7
-6 -7 -7 -8 -7 -9 -10 -12 -12 -13 -12 -12 -12 -12 -12 -13 -13 -12 -12 -12 -11 -11 -11 -11 -11 -10 -10 -10 -10 -9 -9 -9 -9 -9 -8 -7 -7 -7 -7 -8 -6 -7 -8 -8 -7
-7 -8 -8 -8 -8 -10 -12 -12 -12 -13 -13 -13 -12 -12 -13 -13 -13 -13 -12 -12 -12 -11 -11 -12 -12 -10 -10 -9 -9 -9 -9 -9 -9 -9 -8 -7 -8 -8 -7 -7 -7 -8 -8 -8 -8
-8 -8 -8 -8 -9 -11 -12 -13 -13 -14 -14 -13 -13 -13 -13 -13 -12 -12 -13 -11 -12 -12 -11 -11 -11 -11 -10 -9 -9 -9 -9 -9 -9 -8 -8 -8 -8 -8 -8 -8 -8 -8 -8 -8 -8
-9 -9 -9 -9 -10 -12 -13 -13 -13 -14 -14 -14 -13 -12 -12 -12 -11 -12 -12 -13 -12 -12 -12 -11 -10 -10 -10 -9 -9 -11 -10 -9 -9 -9 -8 -8 -8 -9 -9 -8 -8 -8 -9 -9 -8
-9 -9 -9 -10 -11 -12 -12 -14 -14 -14 -14 -14 -14 -13 -13 -12 -12 -12 -11 -12 -11 -12 -12 -12 -11 -10 -10 -10 -11 -10 -9 -9 -9 -9 -8 -8 -8 -8 -8 -8 -8 -9 -10 -9 -9
-10 -9 -10 -11 -12 -13 -13 -14 -14 -14 -14 -14 -13 -13 -13 -13 -13 -12 -12 -12 -13 -13 -12 -12 -11 -10 -10 -10 -10 -10 -10 -10 -9 -9 -9 -9 -9 -9 -8 -7 -8 -9 -10 -9 -9
-10 -10 -10 -12 -13 -14 -13 -13 -14 -14 -14 -14 -14 -14 -13 -13 -13 -13 -13 -13 -13 -13 -13 -11 -11 -10 -10 -10 -10 -10 -10 -9 -9 -9 -9 -9 -9 -9 -9 -8 -8 -9 -9 -10 -9
-11 -11 -11 -13 -14 -14 -14 -14 -15 -15 -14 -14 -14 -13 -13 -14 -13 -12 -12 -12 -14 -13 -12 -11 -11 -11 -10 -10 -10 -10 -11 -10 -9 -9 -9 -9 -9 -9 -9 -9 -9 -8 -8 -9 -9

GFSSW_500_temp_084.txt.gz
Temp
-2 -2 -2 -2 -2 -2 -2 -2 -2 -2 -2 -2 -2 -2 -2 -2 -2 -2 -3 -4 -4 -4 -5 -6 -7 -7 -7 -7 -6 -6 -6 -7 -7 -8 -8 -7 -7 -7 -7 -7 -7 -6 -6 -6 -7
-2 -2 -2 -2 -2 -2 -2 -2 -2 -2 -2 -2 -2 -2 -2 -2 -2 -2 -3 -3 -4 -4 -4 -6 -6 -7 -7 -7 -7 -6 -6 -7 -7 -7 -8 -7 -6 -7 -6 -7 -8 -7 -7 -7 -7
-3 -3 -2 -2 -2 -2 -2 -2 -2 -2 -2 -2 -2 -2 -2 -2 -2 -2 -3 -3 -3 -4 -4 -5 -5 -6 -7 -7 -7 -6 -7 -8 -8 -8 -8 -8 -7 -7 -6 -7 -7 -7 -6 -7 -7
-3 -3 -3 -3 -3 -3 -3 -3 -3 -3 -3 -2 -2 -2 -2 -2 -3 -3 -3 -3 -3 -4 -4 -5 -5 -5 -7 -7 -7 -6 -7 -8 -8 -8 -8 -8 -7 -7 -6 -5 -6 -7 -6 -7 -7
-3 -3 -3 -3 -3 -3 -3 -3 -3 -3 -3 -3 -3 -3 -2 -2 -3 -3 -4 -4 -3 -4 -4 -4 -4 -5 -5 -7 -6 -6 -5 -6 -8 -8 -8 -7 -7 -8 -7 -6 -7 -7 -7 -7 -7
-3 -3 -3 -4 -4 -4 -4 -4 -4 -4 -3 -3 -3 -3 -2 -3 -3 -3 -4 -4 -4 -4 -4 -4 -5 -5 -5 -5 -4 -5 -4 -4 -6 -6 -7 -7 -8 -8 -7 -7 -7 -7 -7 -6 -7
-3 -3 -3 -4 -4 -4 -4 -4 -4 -4 -4 -4 -3 -3 -3 -4 -4 -4 -4 -4 -4 -5 -5 -4 -5 -5 -5 -5 -5 -6 -5 -4 -5 -6 -7 -7 -7 -7 -8 -7 -7 -6 -7 -7 -7
-3 -3 -3 -3 -3 -4 -4 -3 -3 -3 -3 -3 -3 -3 -2 -5 -4 -4 -5 -5 -5 -5 -5 -6 -5 -4 -5 -5 -5 -5 -5 -6 -6 -7 -7 -7 -7 -7 -7 -7 -7 -6 -7 -7 -7
-3 -3 -3 -3 -3 -4 -4 -4 -3 -3 -3 -3 -3 -3 -2 -4 -5 -6 -6 -6 -6 -6 -6 -6 -6 -5 -5 -5 -6 -6 -5 -6 -7 -7 -7 -7 -8 -7 -7 -7 -7 -7 -6 -5 -7
-3 -4 -4 -3 -3 -4 -4 -3 -4 -3 -3 -3 -3 -3 -3 -4 -5 -5 -5 -7 -7 -8 -7 -7 -6 -6 -5 -4 -5 -6 -5 -7 -7 -7 -7 -7 -8 -7 -7 -7 -7 -7 -7 -6 -7
-4 -4 -4 -4 -4 -4 -4 -4 -4 -3 -3 -3 -4 -4 -4 -4 -5 -6 -7 -7 -9 -9 -6 -8 -7 -5 -6 -6 -6 -6 -6 -7 -7 -7 -7 -8 -7 -7 -7 -8 -7 -7 -7 -7 -7
-4 -4 -4 -4 -4 -4 -4 -4 -3 -3 -3 -6 -3 -3 -4 -5 -4 -6 -9 -8 -8 -8 -9 -9 -7 -7 -7 -7 -7 -6 -6 -7 -7 -7 -8 -7 -8 -8 -8 -7 -7 -7 -7 -7 -6
-4 -4 -4 -4 -4 -4 -4 -4 -4 -3 -3 -4 -4 -4 -4 -5 -5 -7 -9 -10 -10 -9 -9 -10 -7 -9 -8 -7 -7 -7 -7 -7 -6 -7 -8 -8 -7 -7 -7 -7 -7 -7 -7 -7 -7
-4 -4 -4 -4 -4 -4 -4 -4 -4 -4 -4 -5 -5 -7 -6 -6 -5 -9 -11 -11 -11 -10 -10 -10 -9 -9 -9 -9 -8 -8 -8 -8 -7 -8 -7 -8 -7 -7 -7 -7 -7 -6 -7 -7 -7
-4 -4 -4 -5 -4 -4 -4 -4 -4 -5 -5 -7 -7 -7 -10 -11 -10 -10 -11 -12 -12 -11 -10 -10 -10 -9 -9 -8 -9 -8 -9 -9 -9 -9 -7 -7 -7 -5 -6 -6 -7 -6 -6 -7 -7
-5 -5 -5 -5 -5 -4 -5 -5 -6 -6 -7 -8 -9 -11 -12 -11 -11 -10 -11 -12 -12 -11 -11 -11 -11 -11 -10 -9 -10 -9 -9 -9 -9 -9 -8 -7 -7 -5 -6 -6 -6 -6 -6 -7 -7
-5 -5 -5 -5 -5 -5 -5 -6 -6 -6 -8 -9 -11 -12 -12 -11 -12 -11 -11 -12 -12 -11 -11 -11 -10 -10 -10 -10 -10 -10 -9 -9 -9 -9 -7 -7 -8 -7 -7 -7 -7 -7 -7 -7 -7
-5 -5 -5 -5 -5 -5 -6 -7 -7 -7 -9 -11 -11 -12 -12 -11 -12 -12 -12 -12 -12 -12 -11 -11 -11 -10 -10 -10 -10 -10 -9 -9 -9 -9 -8 -8 -8 -7 -7 -7 -7 -7 -7 -7 -7
-6 -6 -5 -5 -6 -6 -7 -7 -7 -9 -10 -11 -12 -12 -13 -12 -13 -13 -13 -12 -11 -12 -12 -11 -10 -11 -11 -10 -10 -9 -10 -10 -9 -9 -9 -7 -8 -7 -7 -7 -7 -7 -7 -7 -7
-6 -6 -6 -6 -6 -7 -7 -7 -8 -10 -12 -11 -12 -12 -12 -12 -13 -13 -13 -12 -12 -12 -13 -12 -12 -11 -11 -10 -10 -10 -10 -10 -10 -9 -9 -7 -8 -7 -8 -7 -7 -7 -7 -7 -7
-7 -7 -7 -7 -8 -8 -8 -8 -10 -11 -12 -12 -12 -12 -12 -12 -13 -13 -12 -12 -13 -13 -13 -12 -12 -10 -11 -11 -11 -10 -11 -10 -10 -9 -9 -9 -8 -8 -8 -8 -8 -8 -8 -8 -8
-7 -7 -7 -8 -9 -9 -8 -9 -11 -12 -12 -12 -12 -12 -12 -12 -13 -13 -12 -12 -12 -12 -12 -12 -11 -11 -11 -11 -11 -11 -10 -11 -10 -10 -9 -9 -9 -8 -8 -8 -8 -8 -8 -8 -8
-7 -8 -9 -9 -9 -9 -9 -10 -11 -12 -13 -13 -13 -12 -12 -12 -12 -12 -13 -12 -13 -13 -12 -12 -13 -11 -10 -10 -11 -11 -11 -11 -10 -10 -9 -9 -9 -9 -9 -9 -8 -8 -9 -8 -9
-8 -9 -10 -9 -9 -9 -9 -10 -11 -12 -12 -13 -13 -13 -13 -13 -12 -12 -12 -13 -12 -13 -13 -12 -12 -11 -11 -10 -10 -11 -11 -10 -10 -10 -10 -9 -9 -9 -9 -9 -9 -9 -9 -9 -9
-9 -10 -10 -10 -9 -10 -10 -10 -12 -13 -13 -14 -13 -13 -13 -13 -13 -13 -12 -13 -13 -12 -11 -12 -12 -11 -11 -11 -10 -11 -11 -10 -11 -11 -10 -10 -9 -9 -9 -9 -9 -9 -9 -9 -9
-10 -10 -11 -10 -10 -10 -10 -11 -12 -13 -13 -13 -13 -13 -13 -13 -13 -12 -12 -12 -13 -13 -13 -12 -12 -12 -11 -11 -11 -10 -11 -11 -10 -11 -11 -9 -9 -9 -9 -9 -9 -9 -10 -9 -8
-11 -11 -11 -11 -11 -11 -11 -12 -14 -13 -13 -13 -12 -12 -13 -13 -12 -12 -13 -13 -13 -12 -13 -12 -12 -12 -11 -11 -11 -11 -11 -11 -11 -10 -10 -10 -9 -9 -10 -10 -9 -9 -9 -9 -8

GFSSW_500_temp_087.txt.gz
Temp
-2 -2 -2 -2 -2 -2 -2 -2 -2 -2 -2 -2 -2 -2 -2 -3 -3 -3 -4 -4 -4 -4 -5 -6 -6 -6 -6 -7 -7 -6 -6 -7 -7 -7 -8 -8 -8 -8 -7 -7 -7 -7 -7 -7 -7
-2 -2 -2 -2 -2 -2 -2 -2 -2 -2 -2 -2 -2 -2 -2 -3 -3 -4 -3 -4 -4 -4 -4 -5 -6 -6 -6 -7 -7 -7 -6 -6 -7 -7 -8 -8 -8 -8 -8 -7 -7 -7 -7 -8 -7
-2 -2 -2 -2 -2 -2 -2 -2 -2 -2 -2 -2 -2 -2 -2 -3 -3 -4 -4 -4 -4 -4 -5 -5 -5 -6 -6 -7 -7 -6 -6 -6 -7 -8 -8 -8 -8 -8 -8 -7 -8 -8 -7 -8 -8
-2 -2 -2 -2 -2 -2 -2 -2 -2 -2 -2 -2 -2 -2 -2 -3 -3 -4 -4 -4 -4 -4 -5 -5 -5 -6 -6 -7 -6 -6 -6 -5 -5 -7 -8 -8 -8 -8 -8 -8 -8 -8 -7 -7 -8
-3 -3 -3 -3 -3 -3 -3 -3 -3 -3 -3 -3 -3 -3 -3 -3 -4 -3 -4 -5 -4 -4 -5 -5 -5 -5 -6 -6 -7 -6 -7 -6 -5 -7 -8 -8 -8 -8 -8 -8 -8 -8 -8 -7 -7
-3 -3 -3 -3 -3 -3 -4 -3 -3 -3 -3 -3 -3 -3 -3 -3 -4 -4 -4 -5 -5 -5 -5 -5 -6 -6 -6 -6 -6 -5 -6 -7 -6 -7 -8 -8 -8 -7 -7 -7 -8 -8 -8 -7 -7
-3 -3 -3 -3 -3 -3 -3 -3 -3 -3 -3 -3 -3 -3 -2 -5 -4 -4 -5 -5 -5 -6 -6 -6 -5 -5 -5 -6 -6 -5 -5 -5 -7 -7 -8 -8 -8 -7 -8 -8 -8 -8 -8 -8 -7
-3 -3 -3 -3 -3 -3 -3 -3 -3 -3 -3 -3 -3 -3 -3 -5 -4 -5 -5 -5 -6 -6 -7 -7 -6 -5 -5 -6 -6 -5 -5 -5 -6 -7 -8 -8 -6 -7 -8 -8 -8 -7 -8 -8 -8
-3 -3 -3 -3 -4 -4 -3 -4 -4 -3 -3 -3 -3 -3 -2 -4 -4 -5 -4 -5 -4 -5 -6 -6 -6 -6 -5 -5 -5 -5 -5 -5 -7 -7 -7 -8 -6 -7 -8 -8 -8 -8 -7 -7 -8
-4 -4 -4 -3 -3 -4 -3 -4 -4 -3 -3 -4 -3 -3 -3 -3 -3 -4 -4 -4 -5 -6 -6 -6 -6 -6 -6 -5 -4 -6 -6 -5 -7 -7 -8 -8 -7 -7 -7 -8 -8 -7 -7 -8 -8
-4 -4 -4 -3 -4 -4 -4 -4 -3 -3 -4 -3 -3 -3 -3 -3 -2 -3 -4 -4 -4 -5 -7 -7 -6 -5 -7 -7 -6 -6 -6 -6 -7 -8 -8 -7 -8 -7 -8 -7 -7 -8 -7 -7 -7
-4 -4 -4 -3 -4 -4 -3 -3 -3 -4 -5 -4 -3 -3 -2 -3 -3 -3 -4 -4 -5 -6 -9 -9 -6 -7 -8 -8 -7 -7 -6 -6 -7 -7 -8 -8 -8 -7 -8 -7 -7 -8 -8 -8 -8
-4 -4 -4 -4 -4 -4 -4 -4 -4 -4 -4 -3 -3 -3 -3 -2 -3 -4 -5 -5 -5 -7 -9 -10 -9 -9 -9 -9 -8 -8 -7 -7 -7 -7 -8 -8 -7 -7 -8 -8 -7 -7 -7 -8 -7
-4 -4 -4 -4 -4 -4 -4 -4 -4 -4 -4 -4 -3 -4 -3 -3 -4 -6 -7 -7 -7 -8 -11 -11 -10 -10 -9 -9 -9 -9 -8 -8 -7 -7 -8 -8 -6 -7 -7 -7 -7 -7 -8 -7 -7
-5 -5 -5 -5 -4 -4 -4 -4 -4 -4 -5 -4 -5 -5 -5 -6 -6 -10 -9 -9 -9 -10 -12 -11 -11 -10 -10 -9 -10 -8 -9 -9 -9 -8 -8 -7 -7 -6 -7 -6 -6 -6 -7 -7 -7
-5 -5 -5 -5 -5 -5 -5 -5 -5 -5 -5 -5 -6 -6 -7 -9 -10 -12 -11 -11 -11 -12 -12 -12 -11 -11 -10 -10 -10 -10 -10 -9 -9 -9 -8 -7 -7 -6 -6 -6 -6 -7 -7 -7 -7
-5 -5 -5 -6 -6 -5 -5 -5 -5 -5 -6 -7 -7 -8 -9 -11 -12 -12 -11 -11 -12 -12 -12 -12 -11 -11 -11 -11 -11 -11 -10 -10 -10 -10 -9 -9 -7 -5 -7 -7 -6 -6 -6 -7 -7
-6 -6 -6 -6 -6 -6 -6 -5 -6 -6 -7 -7 -8 -10 -11 -12 -12 -12 -11 -12 -12 -12 -12 -12 -12 -11 -10 -10 -10 -11 -11 -11 -10 -10 -10 -9 -7 -5 -7 -7 -7 -6 -6 -7 -7
-6 -6 -7 -7 -6 -6 -6 -6 -6 -7 -7 -8 -9 -11 -12 -12 -12 -12 -12 -12 -12 -12 -13 -12 -12 -11 -11 -11 -11 -11 -11 -11 -11 -10 -10 -10 -8 -7 -8 -7 -8 -7 -6 -7 -7
-7 -7 -7 -7 -7 -7 -6 -7 -7 -7 -8 -9 -10 -11 -12 -13 -12 -12 -12 -12 -13 -13 -13 -12 -12 -12 -12 -12 -11 -12 -12 -11 -11 -11 -10 -10 -10 -7 -7 -7 -7 -7 -7 -7 -7
-7 -7 -7 -7 -7 -7 -7 -7 -8 -8 -8 -9 -10 -11 -12 -12 -13 -12 -12 -12 -12 -12 -12 -12 -11 -12 -11 -12 -11 -12 -12 -12 -12 -11 -11 -10 -9 -8 -8 -8 -7 -7 -7 -7 -8
-8 -8 -8 -8 -8 -7 -8 -8 -8 -9 -9 -10 -11 -11 -12 -12 -12 -12 -12 -12 -13 -12 -13 -11 -12 -12 -10 -11 -11 -12 -11 -12 -12 -10 -11 -10 -9 -9 -8 -8 -8 -8 -8 -8 -8
-8 -9 -9 -8 -8 -8 -9 -9 -9 -9 -10 -11 -12 -12 -12 -12 -13 -13 -13 -13 -13 -13 -13 -13 -12 -12 -11 -11 -11 -11 -11 -11 -12 -12 -11 -10 -9 -9 -9 -9 -8 -9 -9 -9 -9
-9 -9 -9 -9 -9 -9 -10 -9 -9 -10 -11 -11 -12 -12 -12 -13 -13 -13 -13 -13 -13 -13 -13 -13 -13 -13 -12 -11 -11 -11 -11 -11 -11 -11 -10 -10 -9 -10 -9 -9 -9 -9 -9 -9 -9
-10 -10 -9 -9 -9 -10 -10 -10 -10 -11 -11 -12 -13 -12 -13 -14 -13 -13 -13 -13 -13 -14 -14 -13 -13 -13 -12 -12 -12 -11 -11 -11 -11 -11 -11 -10 -9 -9 -9 -9 -10 -10 -9 -9 -9
-10 -10 -10 -10 -10 -10 -10 -10 -11 -12 -12 -13 -13 -13 -13 -13 -13 -13 -13 -13 -13 -13 -14 -14 -13 -13 -13 -12 -12 -12 -11 -11 -11 -11 -11 -11 -10 -10 -10 -9 -9 -9 -9 -9 -10
-10 -10 -11 -11 -11 -11 -11 -11 -11 -13 -12 -13 -13 -13 -14 -14 -14 -13 -13 -13 -13 -13 -14 -14 -13 -13 -12 -13 -12 -12 -12 -11 -11 -11 -11 -11 -11 -10 -10 -10 -9 -9 -10 -10 -9

GFSSW_500_temp_090.txt.gz
Temp
-2 -2 -2 -2 -2 -2 -2 -2 -2 -2 -2 -2 -2 -3 -3 -3 -4 -4 -4 -4 -4 -4 -5 -5 -5 -5 -6 -7 -6 -6 -7 -6 -5 -6 -7 -7 -8 -8 -8 -8 -8 -8 -7 -8 -7
-2 -2 -2 -2 -2 -2 -2 -2 -2 -2 -2 -2 -2 -2 -3 -3 -3 -3 -4 -4 -4 -4 -4 -4 -5 -5 -5 -6 -7 -6 -6 -6 -6 -6 -6 -8 -8 -8 -8 -8 -8 -8 -8 -8 -8
-2 -2 -2 -2 -2 -2 -2 -2 -2 -2 -2 -2 -2 -3 -3 -3 -3 -4 -4 -4 -4 -4 -4 -4 -4 -5 -5 -5 -7 -6 -6 -6 -6 -6 -6 -7 -8 -8 -8 -8 -8 -8 -8 -8 -8
-2 -2 -2 -2 -2 -3 -3 -3 -3 -3 -3 -3 -3 -3 -4 -4 -4 -4 -4 -4 -4 -4 -5 -4 -4 -5 -6 -6 -6 -6 -7 -6 -6 -6 -6 -7 -8 -8 -8 -8 -8 -8 -8 -8 -8
-3 -3 -3 -3 -3 -3 -3 -3 -3 -3 -3 -4 -4 -4 -4 -4 -5 -4 -5 -5 -5 -5 -5 -5 -5 -4 -5 -6 -6 -6 -7 -6 -6 -6 -7 -7 -8 -8 -7 -8 -8 -7 -8 -8 -8
-3 -3 -3 -3 -3 -3 -3 -3 -3 -3 -3 -4 -4 -4 -4 -5 -5 -4 -4 -5 -5 -6 -6 -6 -6 -5 -4 -4 -4 -5 -5 -7 -6 -7 -7 -8 -7 -8 -8 -8 -8 -8 -8 -8 -8
-3 -3 -3 -3 -3 -3 -3 -3 -3 -3 -4 -3 -3 -4 -4 -6 -5 -5 -4 -4 -4 -5 -6 -5 -5 -5 -5 -5 -5 -4 -4 -5 -7 -7 -7 -7 -7 -8 -8 -8 -8 -8 -8 -8 -7
-3 -3 -3 -3 -4 -3 -3 -3 -3 -3 -3 -3 -3 -3 -3 -4 -4 -4 -4 -4 -4 -4 -5 -5 -5 -5 -5 -6 -6 -5 -4 -4 -6 -7 -8 -7 -7 -8 -8 -8 -8 -8 -8 -8 -7
-4 -4 -3 -4 -4 -4 -4 -3 -3 -4 -4 -3 -3 -3 -3 -3 -3 -3 -3 -3 -3 -4 -5 -5 -4 -5 -6 -6 -6 -6 -5 -5 -6 -7 -7 -8 -6 -7 -8 -8 -8 -8 -8 -8 -8
-4 -4 -3 -4 -4 -3 -3 -3 -4 -4 -4 -3 -3 -3 -3 -3 -3 -4 -4 -4 -3 -3 -4 -5 -5 -5 -5 -7 -6 -7 -6 -6 -6 -7 -8 -8 -8 -7 -7 -8 -7 -7 -8 -8 -8
-4 -4 -3 -4 -3 -3 -4 -4 -4 -4 -4 -4 -4 -4 -3 -3 -3 -3 -3 -3 -4 -4 -4 -5 -5 -4 -7 -8 -8 -8 -7 -6 -7 -7 -8 -8 -8 -7 -7 -7 -8 -7 -7 -8 -8
-4 -4 -4 -4 -4 -4 -4 -4 -4 -4 -4 -3 -4 -3 -3 -3 -3 -3 -3 -4 -4 -5 -5 -5 -4 -7 -9 -9 -8 -9 -8 -7 -7 -7 -8 -8 -8 -8 -7 -7 -7 -8 -7 -8 -8
-4 -4 -4 -4 -4 -4 -4 -4 -4 -4 -4 -4 -4 -4 -3 -3 -3 -4 -4 -4 -5 -5 -6 -6 -6 -9 -10 -10 -9 -9 -8 -8 -8 -8 -8 -8 -8 -8 -8 -7 -7 -7 -8 -8 -8
-4 -4 -4 -4 -4 -4 -4 -4 -4 -4 -4 -4 -4 -4 -4 -4 -4 -4 -4 -4 -5 -6 -7 -7 -9 -10 -11 -11 -10 -10 -10 -9 -9 -8 -8 -8 -8 -8 -8 -8 -7 -6 -7 -7 -7
-5 -5 -5 -5 -5 -5 -5 -5 -5 -5 -5 -4 -5 -5 -5 -4 -4 -5 -5 -5 -7 -8 -9 -10 -11 -11 -11 -11 -11 -10 -10 -10 -9 -9 -9 -8 -8 -7 -8 -8 -8 -7 -6 -6 -7
-5 -5 -5 -5 -5 -5 -5 -5 -5 -5 -5 -5 -5 -5 -5 -6 -6 -6 -6 -8 -10 -10 -11 -11 -12 -12 -12 -11 -11 -11 -11 -11 -10 -10 -10 -8 -8 -8 -8 -8 -7 -7 -7 -7 -7
-5 -5 -5 -5 -5 -6 -6 -6 -6 -6 -6 -5 -6 -5 -6 -7 -8 -8 -8 -9 -10 -11 -10 -12 -12 -12 -12 -11 -11 -11 -11 -11 -11 -11 -10 -9 -9 -8 -8 -8 -7 -6 -7 -7 -7
-5 -5 -5 -6 -6 -6 -7 -7 -6 -6 -6 -6 -6 -6 -7 -8 -9 -10 -11 -12 -11 -11 -11 -13 -12 -12 -12 -12 -11 -11 -12 -12 -11 -10 -10 -10 -9 -8 -8 -8 -7 -7 -6 -6 -6
-6 -6 -6 -7 -7 -7 -7 -7 -7 -7 -6 -7 -7 -7 -8 -9 -10 -12 -12 -12 -12 -11 -12 -12 -13 -12 -13 -13 -12 -12 -12 -12 -13 -11 -10 -10 -9 -8 -7 -8 -7 -7 -6 -6 -6
-7 -7 -7 -7 -7 -7 -7 -7 -7 -7 -7 -8 -8 -8 -9 -10 -11 -12 -13 -12 -12 -12 -12 -13 -12 -12 -12 -12 -12 -13 -13 -12 -13 -13 -11 -10 -9 -9 -8 -8 -8 -8 -8 -7 -7
-7 -7 -8 -8 -8 -8 -8 -8 -8 -8 -8 -8 -8 -9 -9 -11 -12 -12 -13 -13 -13 -12 -12 -12 -12 -12 -12 -12 -12 -13 -13 -13 -12 -11 -11 -9 -9 -9 -9 -9 -8 -8 -8 -7 -7
-7 -7 -8 -8 -8 -8 -9 -8 -8 -8 -9 -9 -9 -9 -9 -10 -12 -12 -13 -13 -13 -13 -12 -13 -12 -12 -12 -12 -11 -12 -12 -12 -13 -13 -11 -11 -9 -9 -10 -9 -8 -8 -8 -8 -7
-8 -8 -8 -9 -9 -9 -9 -9 -9 -10 -10 -10 -10 -10 -10 -11 -12 -13 -13 -14 -13 -13 -13 -13 -13 -13 -12 -12 -12 -12 -12 -12 -12 -12 -10 -11 -9 -9 -10 -10 -9 -9 -8 -9 -8
-8 -8 -9 -9 -9 -10 -9 -9 -10 -10 -10 -10 -10 -11 -11 -12 -12 -12 -13 -14 -14 -14 -13 -13 -13 -13 -12 -12 -12 -13 -12 -11 -11 -12 -11 -10 -10 -10 -10 -10 -9 -9 -9 -9 -8
-9 -9 -9 -9 -10 -10 -10 -10 -10 -11 -11 -11 -11 -11 -12 -12 -13 -13 -13 -14 -14 -14 -14 -14 -13 -13 -13 -13 -13 -12 -12 -12 -11 -11 -12 -11 -10 -10 -9 -9 -9 -10 -10 -10 -10
-9 -9 -9 -10 -10 -10 -10 -11 -11 -11 -11 -11 -12 -13 -12 -12 -13 -14 -14 -14 -13 -13 -14 -14 -14 -13 -13 -13 -12 -12 -12 -11 -12 -11 -11 -10 -10 -10 -9 -10 -10 -10 -10 -10 -10
-10 -10 -10 -10 -11 -10 -11 -11 -11 -12 -12 -12 -12 -13 -13 -13 -14 -14 -13 -13 -13 -13 -13 -13 -14 -14 -13 -13 -12 -12 -13 -12 -11 -11 -11 -11 -11 -10 -10 -10 -10 -10 -10 -10 -10